This demonstration page uses our WeatherBlox Daily Observations layout. Learn more.

Left ArrowRight Arrow

40.92501, -98.34201

Hourly Observations for May 25, 2020

Temp ( °F °C ) Dew Point ( °F °C ) Humidity (%) Winds ( mph kmh ) Pressure ( in mb ) Visibility ( mi km ) Precip ( " mm )
12:07 am 00:07 Cloudy with Nearby Thunderstorms 65 18.3 58 14.4 78 78 NE 18 30 29.79 1009 10 16 0.00 0.00
12:25 am 00:25 Cloudy 65 18.3 58 14.4 78 78 NE 16 26 29.80 1009 10 16 0.00 0.00
12:53 am 00:53 Cloudy with Light Rain 64 17.8 58 14.4 81 81 NE 13 20 29.85 1011 10 16 0.01 0.25
1:04 am 01:04 Cloudy with Nearby Thunderstorms 64 17.8 58 14.4 81 81 N 10 17 29.83 1010 10 16 0.00 0.00
1:29 am 01:29 Cloudy with Nearby Thunderstorms 63 17.2 58 14.4 84 84 NNW 6 9 29.85 1011 6 10 0.01 0.25
1:53 am 01:53 Cloudy with Nearby Thunderstorms 61 16.1 58 14.4 90 90 NW 15 24 29.90 1012 3 5 0.09 2.29
1:56 am 01:56 Cloudy with Heavy Rain 61 16.1 58 14.4 90 90 NW 14 22 29.89 1012 2 3 0.02 0.51
2:03 am 02:03 Cloudy with Heavy Rain 60 15.6 58 14.4 93 93 NW 10 17 29.89 1012 2 2 0.13 3.30
2:16 am 02:16 Cloudy with Heavy Rain 60 15.6 57 13.9 90 90 NNW 12 19 29.90 1013 1 2 0.32 8.13
2:24 am 02:24 Cloudy with Heavy Rain 60 15.6 57 13.9 90 90 NNW 15 24 29.89 1012 1 2 0.48 12.19
2:53 am 02:53 Cloudy with Light Rain 60 15.6 57 13.9 90 90 N 18 30 29.91 1013 4 6 0.83 21.08
3:21 am 03:21 Cloudy with Rain 59 15 56 13.3 90 90 N 17 28 29.90 1013 4 6 0.04 1.02
3:30 am 03:30 Cloudy with Rain 59 15 56 13.3 90 90 N 14 22 29.90 1013 4 6 0.06 1.52
3:35 am 03:35 Cloudy with Heavy Rain 59 15 56 13.3 90 90 N 13 20 29.91 1013 2 3 0.08 2.03
3:53 am 03:53 Cloudy with Heavy Rain 58 14.4 56 13.3 93 93 N 12 19 29.93 1014 2 3 0.29 7.37
3:57 am 03:57 Cloudy with Heavy Rain 58 14.4 55 12.8 90 90 N 10 17 29.93 1013 2 3 0.06 1.52
4:09 am 04:09 Cloudy with Light Rain 58 14.4 55 12.8 90 90 N 12 19 29.93 1013 4 6 0.10 2.54
4:24 am 04:24 Cloudy with Rain 58 14.4 55 12.8 90 90 N 14 22 29.92 1013 3 5 0.12 3.05
4:31 am 04:31 Cloudy with Light Rain 58 14.4 55 12.8 90 90 N 15 24 29.91 1013 3 5 0.14 3.56
4:41 am 04:41 Cloudy with Light Rain 57 13.9 54 12.2 90 90 N 17 28 29.91 1013 5 8 0.15 3.81
4:53 am 04:53 Cloudy with Light Rain 57 13.9 54 12.2 90 90 N 14 22 29.92 1013 6 10 0.16 4.06
5:20 am 05:20 Cloudy with Light Rain 57 13.9 54 12.2 90 90 N 14 22 29.91 1013 6 10 0.01 0.25
5:53 am 05:53 Cloudy with Rain 56 13.3 53 11.7 90 90 N 20 31 29.91 1013 4 6 0.04 1.02
6:12 am 06:12 Cloudy with Heavy Rain 55 12.8 53 11.7 93 93 N 18 30 29.91 1013 3 4 0.03 0.76
6:18 am 06:18 Cloudy with Rain 56 13.3 53 11.7 90 90 N 17 28 29.91 1013 3 5 0.06 1.52
6:29 am 06:29 Cloudy with Light Rain 56 13.3 52 11.1 87 87 N 18 30 29.91 1013 4 6 0.08 2.03
6:53 am 06:53 Cloudy 55 12.8 51 10.6 87 87 N 21 33 29.90 1013 9 14 0.08 2.03
7:32 am 07:32 Cloudy 55 12.8 52 11.1 90 90 N 15 24 29.91 1013 9 14 0.00 0.00
7:53 am 07:53 Cloudy 55 12.8 51 10.6 87 87 NNW 18 30 29.91 1013 9 14 0.00 0.00
8:53 am 08:53 Cloudy 56 13.3 52 11.1 87 87 N 18 30 29.92 1013 10 16 0.00 0.00
9:24 am 09:24 Cloudy 56 13.3 51 10.6 84 84 N 17 28 29.94 1014 10 16 0.00 0.00
9:53 am 09:53 Cloudy with Light Rain 55 12.8 52 11.1 90 90 N 17 28 29.95 1014 5 8 0.00 0.00
10:36 am 10:36 Cloudy with Light Rain 55 12.8 52 11.1 90 90 N 15 24 29.95 1014 3 5 0.00 0.00
10:53 am 10:53 Cloudy with Light Rain 55 12.8 52 11.1 90 90 N 15 24 29.97 1015 3 4 0.01 0.25
11:10 am 11:10 Cloudy with Rain 55 12.8 52 11.1 90 90 N 12 19 29.97 1015 2 2 0.01 0.25
11:40 am 11:40 Cloudy with Light Rain 56 13.3 53 11.7 90 90 N 14 22 29.97 1015 2 3 0.06 1.52
11:53 am 11:53 Cloudy with Light Rain 56 13.3 52 11.1 87 87 N 15 24 29.98 1015 3 5 0.06 1.52
11:55 am 11:55 Cloudy with Light Rain 56 13.3 52 11.1 87 87 N 16 26 29.97 1015 3 5 0.00 0.00
12:18 pm 12:18 Cloudy with Light Rain 56 13.3 53 11.7 90 90 NNW 14 22 29.97 1015 6 10 0.01 0.25
12:30 pm 12:30 Cloudy 56 13.3 53 11.7 90 90 N 16 26 29.96 1014 8 13 0.01 0.25
12:53 pm 12:53 Cloudy with Mist and Fog 56 13.3 53 11.7 90 90 N 18 30 29.97 1015 5 8 0.01 0.25
1:00 pm 13:00 Cloudy with Mist and Fog 56 13.3 53 11.7 90 90 N 17 28 29.96 1014 5 8 0.00 0.00
1:30 pm 13:30 Cloudy with Mist and Fog 56 13.3 54 12.2 93 93 N 14 22 29.95 1014 4 6 0.00 0.00
1:46 pm 13:46 Cloudy with Mist and Fog 56 13.3 53 11.7 90 90 N 17 28 29.95 1014 5 8 0.00 0.00
1:53 pm 13:53 Cloudy with Mist and Fog 57 13.9 53 11.7 87 87 N 16 26 29.96 1015 6 10 0.00 0.00
2:08 pm 14:08 Cloudy with Mist and Fog 57 13.9 54 12.2 90 90 N 16 26 29.94 1014 6 10 0.00 0.00
2:53 pm 14:53 Cloudy with Light Rain 57 13.9 54 12.2 90 90 N 16 26 29.96 1014 3 4 0.00 0.00
2:57 pm 14:57 Cloudy with Light Rain 57 13.9 54 12.2 90 90 N 15 24 29.94 1014 3 4 0.00 0.00
3:00 pm 15:00 Cloudy with Light Rain 57 13.9 54 12.2 90 90 N 14 22 29.94 1014 3 5 0.00 0.00
3:05 pm 15:05 Cloudy with Light Rain 57 13.9 55 12.8 93 93 NNW 13 20 29.94 1014 3 4 0.00 0.00
3:53 pm 15:53 Cloudy with Light Rain 58 14.4 55 12.8 90 90 NNW 16 26 29.96 1014 3 5 0.02 0.51
4:00 pm 16:00 Cloudy with Light Rain 58 14.4 55 12.8 90 90 NNW 13 20 29.93 1013 3 4 0.00 0.00
4:12 pm 16:12 Cloudy with Light Rain 58 14.4 55 12.8 90 90 N 17 28 29.93 1013 3 5 0.00 0.00
4:32 pm 16:32 Cloudy with Light Rain 58 14.4 55 12.8 90 90 N 16 26 29.92 1013 4 6 0.00 0.00
4:53 pm 16:53 Cloudy with Light Rain 58 14.4 55 12.8 90 90 N 16 26 29.95 1014 5 8 0.00 0.00
5:16 pm 17:16 Cloudy with Light Rain 59 15 55 12.8 87 87 N 18 30 29.92 1013 10 16 0.01 0.25
5:53 pm 17:53 Cloudy with Light Rain 59 15 55 12.8 87 87 NNW 15 24 29.95 1014 10 16 0.01 0.25
6:01 pm 18:01 Cloudy with Light Rain 59 15 55 12.8 87 87 NNW 15 24 29.92 1013 10 16 0.00 0.00
6:20 pm 18:20 Cloudy 59 15 54 12.2 83 83 NNW 16 26 29.91 1013 10 16 0.00 0.00
6:27 pm 18:27 Cloudy 59 15 54 12.2 83 83 NNW 15 24 29.91 1013 10 16 0.00 0.00
6:53 pm 18:53 Cloudy 60 15.6 54 12.2 80 80 N 14 22 29.94 1014 10 16 0.00 0.00
7:21 pm 19:21 Cloudy 60 15.6 54 12.2 80 80 N 14 22 29.92 1013 10 16 0.00 0.00
7:53 pm 19:53 Cloudy 59 15 54 12.2 83 83 N 17 28 29.96 1014 10 16 0.00 0.00
8:08 pm 20:08 Cloudy 59 15 53 11.7 81 81 N 15 24 29.92 1013 10 16 0.00 0.00
8:53 pm 20:53 Cloudy 59 15 53 11.7 81 81 N 14 22 29.96 1015 10 16 0.00 0.00
9:12 pm 21:12 Cloudy 59 15 53 11.7 81 81 N 12 19 29.93 1014 10 16 0.00 0.00
9:53 pm 21:53 Cloudy 58 14.4 53 11.7 84 84 N 9 15 29.98 1015 10 16 0.00 0.00
10:53 pm 22:53 Cloudy 58 14.4 53 11.7 84 84 N 8 13 29.98 1015 10 16 0.00 0.00
11:53 pm 23:53 Cloudy 57 13.9 53 11.7 87 87 N 8 13 29.98 1015 10 16 0.00 0.00

Powered by AerisWeather